Temp
74 77 77 77 76 76 73 76 70 77 74 83 85 86 89 89 85 83 82 82 83 82 81 81 81 81 83 84 84 83 82 81 80 78 78 77 75 77 77 75 74 76 76 76
69 76 75 72 77 78 76 79 75 80 77 87 90 85 83 85 84 83 83 84 84 83 81 80 80 80 82 82 81 82 81 79 79 77 75 74 74 74 75 74 74 75 76 76
64 73 72 64 72 76 77 79 79 72 80 89 83 79 82 85 84 85 87 86 82 81 80 79 81 81 81 81 80 79 79 79 76 74 73 74 74 73 73 73 74 74 75 75
65 65 55 74 84 82 78 79 79 82 83 81 85 87 85 86 86 84 87 87 83 83 82 82 82 82 83 81 78 79 76 75 75 74 74 74 72 72 73 73 73 74 74 74
61 62 69 73 73 76 74 74 82 80 82 86 85 80 82 82 83 85 85 84 83 83 82 80 81 81 80 79 78 77 76 76 75 75 74 73 72 72 73 73 73 74 75 73
58 59 57 74 79 81 83 70 86 84 82 84 79 77 86 79 80 80 80 80 80 81 81 79 78 79 78 77 77 76 77 76 75 75 74 74 74 73 73 74 74 77 74 74
60 60 68 76 76 80 67 74 87 84 82 84 77 84 76 76 76 77 77 77 79 80 79 76 78 79 77 76 76 77 76 75 74 74 75 75 74 73 73 73 74 72 72 72
61 58 57 74 73 73 78 75 76 78 82 79 74 72 74 74 74 76 76 78 79 77 75 76 77 78 75 76 75 76 75 74 74 74 76 75 73 72 72 72 72 71 71 71
67 68 69 72 71 73 71 73 73 74 75 74 72 71 72 71 73 74 75 76 79 77 74 73 75 77 74 72 73 70 70 71 72 74 75 74 72 71 73 72 74 73 72 71
66 67 68 68 70 71 72 73 74 75 74 74 71 72 71 72 74 73 74 74 76 75 73 71 73 72 72 70 71 71 70 70 71 72 70 72 73 74 75 74 72 70 70 68
67 63 67 68 70 71 72 73 74 75 74 73 73 72 71 70 70 71 72 74 75 73 72 72 72 72 72 70 71 71 71 71 71 68 67 69 67 71 75 71 66 71 72 72
68 67 71 68 70 73 71 71 73 73 70 72 75 72 73 71 72 72 72 73 73 74 73 73 72 71 71 69 72 71 70 70 67 64 67 64 64 59 50 50 48 47 45 60
64 71 71 70 72 75 72 73 75 73 71 70 71 70 71 69 71 64 72 73 73 72 71 71 70 65 66 67 68 67 68 70 69 64 63 62 61 62 61 54 46 44 44 47
67 70 66 70 69 74 74 73 72 74 73 72 71 70 67 67 65 67 66 68 67 70 70 65 66 67 68 68 68 69 68 56 70 69 67 62 66 65 63 66 67 64 47 54
70 73 69 69 71 71 73 74 72 71 71 70 70 68 64 63 67 66 67 67 66 66 69 70 70 71 71 70 69 69 70 71 70 70 70 67 65 67 70 69 69 65 63 56
68 70 70 68 67 69 71 72 71 70 71 71 71 71 69 72 71 70 67 67 68 68 68 70 70 69 70 70 69 69 67 61 63 70 69 70 70 69 67 67 67 66 67 67
63 61 63 64 66 69 70 72 72 70 71 72 71 71 71 71 69 68 68 69 70 71 71 71 70 70 70 70 70 72 72 68 62 71 72 71 70 70 68 67 68 67 67 67
64 68 69 68 67 67 67 68 69 69 68 68 69 70 70 70 68 66 68 69 70 69 71 70 70 69 69 69 68 70 71 71 68 71 72 71 70 69 67 68 69 67 69 62
64 64 65 66 68 67 66 65 66 66 66 65 67 67 68 68 69 69 69 69 68 68 67 69 60 66 68 65 68 72 72 71 70 70 71 62 69 69 68 68 70 67 64 59
63 64 64 64 65 65 63 64 65 65 65 66 66 66 66 66 67 67 67 67 68 69 68 68 69 69 68 65 62 72 71 72 71 71 71 71 69 68 68 61 65 63 57 54
61 62 61 61 60 61 61 62 63 62 63 64 63 63 64 65 67 67 65 66 64 63 69 62 70 71 71 68 69 73 72 70 70 69 69 70 68 70 68 65 65 57 55 54
61 61 61 60 60 58 58 60 60 61 61 61 61 63 63 61 63 63 65 66 65 54 68 71 72 61 68 60 73 72 71 71 71 71 70 70 70 68 62 66 66 58 60 63
59 59 61 60 58 58 59 59 59 60 60 60 61 62 61 63 65 65 64 64 68 59 70 71 58 55 55 71 72 72 72 71 71 71 70 68 67 61 60 62 57 57 60 64
60 59 59 60 61 60 58 58 60 60 60 61 60 62 62 61 60 60 61 56 50 59 69 67 61 53 57 72 72 72 72 71 68 67 62 54 60 65 68 67 67 67 66 63
60 60 60 61 61 60 59 60 62 62 62 60 60 62 61 60 64 66 67 66 51 62 69 51 52 52 73 73 74 72 72 72 72 72 69 66 64 61 64 67 67 66 66 66
61 63 63 61 61 63 64 64 63 63 64 58 58 58 59 63 57 63 66 61 67 59 70 70 70 68 68 73 73 74 73 70 69 72 69 69 70 69 68 68 67 67 67 66
63 54 66 66 66 66 66 65 66 65 64 65 64 65 63 61 61 62 57 65 69 69 68 68 69 60 66 72 72 72 72 72 63 71 70 69 69 69 68 68 68 67 67 67
MSLP
999.53 999.29 999.41 999.27 999.21 999.37 999.28 999.10 998.95 998.70 998.83 998.61 998.73 998.74 998.62 999.00 999.15 999.77 1000.07 1000.66 1000.83 1001.55 1002.37 1003.18 1003.89 1004.61 1005.18 1005.67 1006.26 1006.88 1007.56 1008.09 1008.57 1009.27 1009.92 1010.58 1011.49 1012.05 1012.74 1013.51 1014.04 1014.29 1014.71 1015.18
999.27 998.95 998.93 998.65 998.40 998.46 998.53 998.35 998.53 998.16 998.17 998.23 998.07 998.65 998.83 998.83 999.23 999.28 999.47 999.85 1000.71 1001.41 1002.15 1002.84 1003.59 1004.19 1004.74 1005.39 1005.98 1006.58 1007.04 1007.77 1008.53 1009.03 1009.63 1010.31 1011.22 1012.07 1012.46 1013.29 1013.66 1014.09 1014.56 1014.90
999.24 998.81 998.64 998.30 997.22 997.21 997.48 997.75 997.84 997.69 997.82 997.82 998.11 998.28 998.41 998.22 998.68 998.71 998.74 999.17 1000.04 1000.66 1001.48 1002.38 1003.08 1003.55 1004.15 1004.93 1005.81 1006.51 1007.02 1007.64 1008.35 1009.02 1009.59 1010.20 1010.97 1011.85 1012.41 1012.94 1013.42 1013.91 1014.41 1014.78
999.70 999.24 998.05 995.43 995.82 996.40 996.65 996.83 997.29 997.13 997.24 997.45 997.43 997.50 997.92 998.11 997.97 998.03 998.32 999.09 1000.01 1000.69 1001.57 1002.31 1002.82 1003.55 1004.15 1004.93 1005.87 1006.57 1007.31 1007.97 1008.68 1009.24 1009.68 1010.26 1011.04 1011.61 1012.20 1012.71 1013.29 1013.66 1014.06 1014.57
1000.05 998.61 996.82 995.60 995.87 995.69 995.96 995.80 996.23 996.39 996.63 996.78 997.38 998.03 997.51 997.63 997.90 998.17 999.15 999.75 1000.18 1000.94 1001.68 1002.48 1003.05 1004.05 1004.57 1005.30 1006.11 1006.77 1007.40 1007.94 1008.61 1009.21 1009.73 1010.29 1010.84 1011.43 1012.15 1012.76 1013.17 1013.39 1013.60 1014.25
1000.51 998.18 995.70 995.28 995.30 995.58 995.67 995.12 994.90 995.45 995.63 996.09 997.68 997.85 996.96 997.21 998.03 998.85 999.39 1000.02 1000.76 1001.35 1002.13 1002.83 1003.81 1004.30 1004.75 1005.57 1006.32 1006.80 1007.26 1007.77 1008.46 1009.10 1009.79 1010.14 1010.72 1011.36 1012.17 1012.62 1012.87 1013.13 1013.49 1014.05
999.67 998.00 995.94 995.51 995.75 996.05 995.82 994.50 994.40 994.83 994.98 995.83 997.06 996.88 998.00 998.35 998.81 999.29 999.68 1000.32 1001.13 1001.79 1002.67 1003.64 1003.99 1004.31 1005.27 1006.13 1006.47 1006.98 1007.40 1008.11 1008.71 1008.92 1009.59 1009.71 1010.39 1011.34 1011.95 1012.21 1012.54 1013.26 1013.37 1013.73
998.95 997.57 996.33 996.21 996.57 996.09 995.37 995.14 995.21 995.36 995.40 996.09 997.46 998.15 998.92 999.62 999.98 1000.21 1000.55 1001.19 1001.89 1002.59 1003.43 1004.14 1004.54 1004.60 1005.35 1005.88 1006.51 1007.16 1007.49 1007.67 1008.95 1008.90 1009.14 1009.95 1010.48 1011.10 1011.47 1012.02 1012.37 1012.85 1013.24 1013.33
996.64 995.80 996.25 996.19 996.27 996.12 996.19 996.21 996.07 996.12 996.47 997.25 998.25 998.60 999.75 1000.80 1001.42 1001.41 1001.49 1002.15 1002.71 1003.23 1004.34 1005.07 1005.53 1005.74 1006.03 1006.18 1006.21 1006.53 1006.35 1007.09 1008.29 1009.19 1009.03 1009.50 1010.21 1010.95 1011.43 1011.83 1012.03 1012.41 1012.64 1012.95
996.41 996.23 996.51 996.93 996.79 996.73 996.51 996.65 996.76 996.92 997.62 998.31 999.10 999.99 1000.98 1001.54 1001.92 1002.35 1002.51 1003.04 1003.49 1004.11 1004.86 1005.82 1006.35 1006.67 1007.09 1007.37 1006.95 1006.34 1006.60 1007.55 1008.41 1009.37 1009.59 1009.90 1010.33 1010.70 1010.96 1011.19 1011.85 1012.60 1012.54 1012.85
995.75 996.57 996.86 997.26 997.07 997.14 997.27 997.24 997.32 997.72 998.44 999.62 999.91 1001.25 1002.01 1002.62 1002.89 1003.29 1003.55 1004.02 1004.58 1005.19 1005.65 1006.29 1006.81 1007.09 1007.39 1007.40 1006.83 1006.57 1007.33 1007.76 1008.60 1009.58 1010.09 1010.44 1011.08 1011.22 1011.20 1011.45 1012.45 1012.73 1012.73 1012.78
995.49 995.71 995.63 996.72 997.41 997.69 997.50 997.34 997.48 998.23 998.95 999.25 1001.41 1001.91 1002.38 1003.65 1004.23 1004.31 1004.42 1004.84 1005.21 1005.63 1005.97 1006.12 1006.62 1007.02 1007.59 1007.64 1007.12 1006.69 1007.53 1008.38 1008.93 1009.68 1010.17 1010.67 1011.30 1012.25 1012.58 1012.86 1012.97 1013.19 1013.33 1013.08
996.43 996.28 996.11 996.79 997.67 997.95 998.02 997.95 997.45 998.63 999.89 999.93 1002.36 1002.15 1003.16 1003.45 1004.94 1005.49 1005.78 1005.82 1005.61 1006.10 1006.52 1006.43 1006.69 1006.65 1007.33 1007.00 1007.78 1007.17 1007.67 1008.45 1009.19 1009.88 1010.46 1010.95 1011.05 1011.42 1012.40 1013.39 1013.16 1013.47 1013.60 1013.91
997.44 996.69 997.34 997.87 998.02 998.58 998.42 998.82 999.21 999.85 1000.72 1001.69 1002.53 1002.96 1003.05 1003.33 1004.92 1005.53 1005.29 1006.09 1006.32 1006.35 1006.77 1006.71 1005.63 1006.48 1007.31 1007.52 1007.65 1007.96 1008.04 1008.77 1009.47 1009.90 1010.19 1010.63 1010.69 1011.45 1011.84 1012.23 1012.62 1013.64 1014.06 1014.35
997.51 997.10 997.68 997.80 999.04 999.37 999.50 999.89 1000.25 1001.11 1001.97 1002.62 1003.11 1003.25 1003.46 1003.18 1004.17 1005.90 1006.05 1005.85 1006.04 1004.20 1006.46 1005.97 1006.55 1007.12 1007.60 1007.73 1007.98 1008.30 1008.44 1008.63 1009.49 1009.51 1009.88 1010.11 1010.94 1011.08 1011.38 1011.79 1012.21 1013.21 1014.07 1014.71
997.97 998.04 998.86 998.67 999.53 1000.17 1000.33 1000.77 1001.14 1002.04 1002.75 1003.25 1003.51 1003.59 1003.81 1003.76 1005.18 1006.15 1006.34 1006.09 1005.49 1005.77 1005.86 1006.39 1007.21 1007.66 1007.74 1008.07 1008.10 1008.59 1008.70 1009.19 1009.35 1009.37 1009.59 1009.90 1010.27 1010.63 1011.07 1011.51 1012.16 1012.80 1013.19 1013.77
998.40 999.57 999.97 1000.31 1000.92 1001.33 1001.68 1002.03 1002.31 1002.83 1003.33 1003.59 1003.99 1004.34 1004.57 1005.19 1005.86 1006.00 1006.05 1005.70 1005.60 1006.07 1006.50 1006.81 1007.18 1007.82 1008.17 1008.39 1008.78 1008.63 1008.86 1009.12 1009.18 1009.10 1009.31 1009.67 1009.92 1010.02 1010.49 1010.97 1011.43 1012.07 1012.83 1013.51
1000.05 1000.41 1000.96 1001.40 1001.98 1002.40 1002.93 1003.40 1003.50 1004.04 1004.49 1004.83 1005.01 1005.14 1005.48 1005.66 1005.67 1005.89 1006.15 1006.20 1006.21 1006.67 1006.93 1007.32 1007.84 1008.21 1008.55 1008.69 1008.76 1008.93 1008.79 1008.51 1008.87 1009.00 1009.26 1009.40 1009.67 1009.99 1010.25 1010.62 1011.05 1011.91 1012.59 1013.91
1001.21 1001.76 1002.33 1002.85 1003.24 1003.62 1004.05 1004.40 1004.65 1005.06 1005.57 1005.85 1005.77 1005.61 1005.61 1005.71 1005.90 1006.19 1006.35 1006.33 1006.48 1006.58 1007.50 1007.95 1008.63 1008.45 1008.68 1009.10 1008.93 1008.60 1008.47 1008.61 1008.94 1009.12 1009.14 1009.57 1009.57 1009.86 1010.20 1010.58 1010.97 1011.93 1012.83 1013.91
1002.97 1003.22 1003.42 1003.84 1004.19 1004.45 1004.88 1005.23 1005.43 1005.63 1005.93 1005.95 1006.09 1006.01 1005.86 1006.03 1006.19 1006.32 1006.52 1006.83 1006.96 1007.10 1007.79 1008.25 1008.43 1008.49 1008.68 1008.95 1008.95 1008.66 1008.71 1008.73 1008.81 1008.94 1009.13 1009.25 1009.52 1009.88 1010.35 1010.79 1011.41 1012.33 1012.97 1013.79
1003.81 1004.02 1004.37 1004.83 1005.30 1005.70 1006.11 1006.27 1006.25 1006.26 1006.40 1006.41 1006.57 1006.46 1006.55 1006.65 1006.56 1006.55 1006.65 1006.79 1007.63 1008.07 1007.96 1008.57 1008.36 1008.39 1008.48 1008.58 1008.66 1008.57 1008.62 1008.73 1008.86 1009.14 1009.35 1009.37 1009.76 1009.86 1010.56 1011.12 1011.79 1012.59 1013.29 1013.77
1004.72 1004.97 1005.33 1005.69 1006.02 1006.47 1006.81 1006.98 1006.98 1007.09 1007.05 1007.07 1007.12 1006.99 1006.85 1006.76 1006.74 1006.93 1007.06 1007.08 1007.74 1008.50 1008.09 1008.15 1008.33 1008.82 1008.67 1008.95 1008.50 1008.44 1008.59 1008.75 1008.92 1009.07 1009.24 1009.54 1009.69 1010.25 1011.08 1011.40 1012.10 1012.95 1013.43 1013.68
1005.48 1005.72 1006.02 1006.31 1006.59 1006.97 1007.23 1007.42 1007.51 1007.54 1007.55 1007.59 1007.53 1007.33 1007.18 1007.07 1007.09 1006.99 1007.13 1007.80 1007.74 1008.39 1008.08 1008.29 1008.87 1009.18 1009.19 1008.59 1008.51 1008.47 1008.61 1008.76 1008.95 1009.09 1009.57 1010.15 1010.49 1011.08 1011.27 1011.71 1012.67 1013.23 1013.52 1013.66
1006.46 1006.67 1006.74 1006.87 1007.13 1007.26 1007.49 1007.91 1007.91 1007.89 1007.91 1007.99 1008.02 1007.80 1007.64 1007.64 1007.75 1007.87 1008.02 1008.23 1008.52 1008.38 1008.26 1008.66 1009.04 1009.22 1008.89 1008.57 1008.55 1008.65 1008.75 1008.85 1009.21 1009.62 1010.43 1010.90 1011.25 1011.23 1011.30 1011.77 1012.16 1012.69 1013.26 1013.76
1006.97 1007.15 1007.12 1007.28 1007.39 1007.54 1007.65 1007.80 1007.71 1007.80 1007.85 1007.98 1008.20 1008.17 1008.13 1008.15 1007.86 1007.82 1007.79 1008.04 1008.74 1008.39 1008.33 1009.09 1009.23 1009.29 1008.74 1008.73 1008.81 1008.89 1008.96 1009.17 1009.47 1009.77 1010.30 1010.83 1011.30 1011.63 1011.62 1011.79 1012.30 1012.82 1013.37 1013.81
1007.37 1007.43 1007.53 1007.66 1007.74 1007.76 1007.81 1007.85 1007.86 1007.96 1007.99 1008.23 1008.32 1008.34 1008.27 1008.21 1008.47 1008.17 1008.15 1008.33 1008.37 1008.82 1008.52 1008.71 1008.68 1008.89 1009.07 1008.94 1009.02 1009.17 1009.23 1009.63 1010.02 1010.08 1010.38 1010.77 1011.00 1011.25 1011.62 1012.04 1012.63 1013.01 1013.39 1013.86
1007.49 1007.51 1007.47 1007.48 1007.45 1007.61 1007.67 1007.97 1008.08 1008.03 1008.11 1007.97 1008.03 1008.29 1008.20 1008.24 1008.32 1008.32 1008.37 1008.46 1008.38 1008.47 1008.70 1008.85 1008.99 1009.22 1008.98 1008.91 1009.24 1009.47 1009.51 1009.64 1010.01 1010.23 1010.53 1010.89 1011.19 1011.51 1011.92 1012.29 1012.68 1013.08 1013.43 1013.87
Wind_Speed
17 16 17 15 13 18 17 18 12 12 12 13 12 15 15 13 5 8 10 12 14 13 12 12 11 11 11 12 13 13 14 14 13 14 14 14 13 13 11 9 9 9 9 9
14 20 17 20 22 18 18 16 16 19 15 12 11 5 12 13 10 12 12 14 11 11 12 12 12 13 12 12 12 12 12 11 12 12 11 11 11 12 12 10 9 10 10 10
10 10 14 13 24 22 21 15 14 15 12 12 10 11 15 15 15 16 16 15 14 14 13 12 13 12 13 11 9 10 10 10 10 10 11 12 11 10 10 11 11 10 10 10
2 8 11 13 16 21 22 20 18 17 13 13 12 10 11 13 15 16 15 12 10 9 9 10 10 10 9 10 9 8 7 7 8 10 11 12 10 11 10 10 10 10 10 10
5 10 7 13 6 11 15 18 21 21 19 19 12 3 13 14 13 12 6 6 6 7 9 9 10 8 9 9 7 7 7 7 8 9 12 13 13 12 9 9 10 9 8 8
4 11 20 7 5 4 10 11 13 20 22 20 11 10 12 10 11 11 11 10 10 11 11 11 9 9 9 8 7 6 6 6 8 10 12 13 11 10 9 8 8 6 7 6
14 11 6 3 7 8 11 9 12 16 20 15 14 8 3 9 12 14 15 16 15 14 12 10 10 10 9 6 5 5 6 6 7 10 11 10 10 9 9 8 7 6 6 5
13 14 19 7 8 11 1 1 2 4 10 13 10 12 11 13 15 17 19 17 16 15 12 9 9 9 9 7 5 5 6 8 6 9 8 7 8 7 8 8 7 7 6 5
12 8 2 7 3 1 2 5 2 4 9 15 16 18 18 16 16 16 18 15 14 15 14 11 9 4 6 6 8 9 12 8 5 8 8 8 8 8 7 7 5 6 5 4
8 7 5 3 3 5 5 4 8 14 16 18 21 20 20 16 16 14 14 14 13 13 13 10 7 7 5 2 6 8 8 7 5 6 6 6 5 6 6 6 5 4 4 4
5 3 7 2 2 7 12 18 20 21 23 22 22 18 15 14 14 13 12 12 11 11 11 9 8 7 6 4 5 8 7 6 6 6 6 6 5 1 3 4 2 3 4 4
5 15 4 7 10 14 19 22 25 26 21 22 19 16 17 12 9 9 11 10 10 11 10 10 9 8 6 6 6 8 7 4 5 5 5 6 6 5 11 6 5 5 5 3
4 9 10 17 15 16 20 20 24 24 18 21 14 16 14 14 8 7 6 6 9 8 7 7 8 7 5 8 5 7 6 5 4 4 5 7 6 5 5 3 12 7 6 10
8 20 20 16 14 17 19 20 19 19 17 16 14 12 10 13 6 6 8 5 5 6 4 2 8 8 6 6 5 5 6 5 4 5 6 5 5 5 3 5 6 7 7 7
12 10 16 22 20 19 19 18 19 16 15 13 10 10 8 12 9 3 2 5 4 12 3 8 7 6 4 4 4 4 3 4 3 4 4 5 4 5 5 5 6 9 9 6
21 21 20 20 19 16 15 15 16 12 10 9 7 6 5 7 5 5 4 5 4 5 5 5 4 4 4 3 4 3 3 3 3 4 5 4 5 5 5 5 8 10 10 9
22 18 18 16 15 13 13 11 12 11 11 11 9 8 8 7 5 3 2 4 5 6 5 4 6 5 4 3 2 1 2 4 2 3 4 4 5 6 6 7 8 10 9 9
13 14 15 16 14 14 14 12 12 10 8 6 6 6 5 3 4 4 5 7 8 7 6 6 5 5 4 2 2 3 3 3 4 4 4 5 5 5 6 7 8 10 9 7
16 15 16 15 13 13 12 11 11 10 7 5 5 6 5 5 4 4 5 6 7 8 5 5 6 4 4 4 2 3 3 4 5 4 4 5 5 6 6 8 10 10 8 7
15 16 16 16 15 13 11 9 8 8 7 6 5 5 4 4 3 3 4 4 4 4 6 6 4 4 3 5 2 3 3 3 3 4 4 4 5 6 7 7 9 9 9 7
15 14 14 13 12 11 9 7 6 7 6 6 5 4 3 2 1 3 5 5 5 5 6 5 3 3 3 3 4 3 4 4 4 4 4 4 6 6 8 9 9 7 7 5
11 11 11 10 9 9 8 6 6 5 5 5 4 3 1 2 4 5 4 4 6 5 4 3 2 4 3 4 3 4 4 4 4 4 4 4 5 7 8 9 11 7 8 8
9 10 10 9 9 8 8 7 6 6 6 6 5 4 5 4 3 4 5 4 6 4 4 3 6 6 5 4 4 4 3 4 2 3 4 4 5 6 5 7 7 8 9 8
9 9 9 8 7 7 8 5 5 5 5 5 5 6 4 3 3 3 3 6 8 5 3 4 5 5 3 6 5 4 4 4 4 4 4 5 5 4 6 8 8 9 8 8
8 7 7 8 8 6 6 5 4 5 5 6 5 4 3 3 3 3 4 5 5 4 5 5 4 2 2 3 2 3 3 4 4 4 5 4 5 5 6 7 8 9 9 8
5 4 4 4 4 2 3 3 4 4 3 3 3 3 3 3 3 3 4 3 4 3 4 4 4 4 2 3 3 1 3 5 5 4 5 5 6 6 7 8 9 9 8 7
5 1 2 1 1 0 1 0 0 2 2 3 3 2 2 3 3 4 4 3 3 3 3 2 3 3 3 3 3 3 3 4 3 5 5 6 6 6 7 8 7 7 6 6
Wind_Direction
236 233 227 239 218 204 214 229 222 214 210 230 239 242 242 271 222 216 204 211 204 193 188 188 188 192 198 199 195 194 200 206 206 195 193 191 187 191 184 184 191 191 195 203
225 228 225 230 234 228 225 235 240 245 231 235 249 260 255 247 233 222 211 213 204 196 184 187 185 185 185 190 192 192 196 200 203 197 191 180 179 186 185 188 187 190 197 199
233 223 220 243 235 229 230 227 234 227 230 231 228 230 239 239 220 222 214 206 193 188 182 179 186 178 181 180 171 192 194 193 190 182 175 175 166 175 179 183 182 190 196 197
212 149 211 237 230 225 228 229 220 238 228 216 233 253 265 247 227 221 213 202 182 172 172 174 163 169 154 155 165 180 193 176 178 180 172 163 168 176 179 181 185 191 193 198
237 214 264 243 185 185 198 234 225 226 234 243 245 261 274 233 226 238 210 155 145 144 142 139 139 143 141 135 147 164 177 177 178 176 170 164 174 176 181 178 185 188 182 186
182 234 232 221 178 204 182 244 234 217 232 234 176 225 245 171 163 146 134 126 126 113 113 116 125 130 120 133 155 168 165 163 167 174 178 176 174 169 175 183 178 174 169 173
220 244 264 214 145 166 194 238 230 208 219 204 199 224 71 126 125 129 123 119 114 106 108 117 125 116 107 121 132 135 138 155 177 180 188 172 159 164 170 170 158 172 163 153
216 222 233 160 130 192 268 340 303 252 230 189 143 121 114 115 120 120 112 110 107 106 105 106 112 121 132 136 127 139 148 152 188 190 181 163 156 159 164 167 167 165 175 163
206 206 114 182 280 304 233 263 252 157 145 139 130 120 116 113 104 103 103 97 94 92 81 60 50 58 139 148 162 177 162 130 171 194 174 157 161 165 166 169 179 191 189 190
169 170 187 229 252 266 210 188 127 116 121 122 116 113 109 109 105 97 91 91 97 93 89 81 74 70 56 17 170 141 92 121 137 178 155 146 157 174 175 176 191 195 171 206
192 121 125 177 174 146 138 131 115 116 115 110 111 108 110 109 107 105 103 103 100 103 105 102 95 85 87 111 102 96 82 94 128 141 139 134 80 50 167 84 336 195 209 200
191 182 129 141 157 158 145 133 127 125 118 126 121 124 117 101 98 112 116 123 116 115 108 99 94 86 65 51 68 82 86 103 132 134 144 135 139 119 52 40 353 296 297 259
332 152 118 127 147 146 139 135 121 114 115 110 133 124 114 114 111 113 97 99 97 91 101 117 102 76 64 69 49 77 92 103 118 133 157 159 150 146 154 78 72 71 138 113
184 130 115 127 132 132 115 108 106 105 113 124 129 124 125 116 133 167 136 142 130 118 96 57 60 73 60 66 76 84 92 98 149 166 162 162 159 155 150 180 150 126 64 112
142 116 111 120 116 109 110 112 107 112 120 122 130 132 140 129 136 227 213 166 174 103 91 59 48 59 72 87 79 95 124 123 146 128 154 150 170 177 185 173 158 145 136 126
109 103 104 96 102 104 105 105 108 110 111 118 113 94 74 87 148 189 180 158 129 129 101 99 114 75 70 102 89 98 104 128 175 164 143 169 172 178 176 173 165 162 163 154
104 98 97 98 107 107 105 113 120 124 121 115 111 113 127 140 141 134 155 118 106 108 111 128 100 100 88 86 191 170 182 168 159 177 194 188 196 185 175 176 172 165 161 163
91 97 101 107 108 104 94 90 88 83 73 67 99 116 119 124 91 106 130 137 123 125 114 93 105 123 125 125 151 189 191 145 156 194 167 169 153 150 155 158 159 160 157 133
84 87 86 87 94 95 92 87 85 85 75 67 73 81 90 79 76 117 139 144 143 133 118 110 115 110 108 99 180 125 139 142 156 157 153 132 145 134 140 151 151 141 136 137
91 89 83 77 67 67 71 61 64 63 47 37 26 41 49 48 42 142 152 142 106 93 133 133 140 116 110 140 179 150 152 147 146 127 136 135 133 139 138 131 137 139 136 141
90 86 83 82 78 69 62 49 47 48 38 30 10 3 346 324 260 150 161 165 120 144 137 136 108 118 114 104 189 153 132 121 120 135 145 133 146 144 139 145 140 132 134 138
83 81 79 79 79 74 59 57 59 57 45 28 16 359 116 93 109 102 86 129 133 189 142 123 124 77 72 213 143 134 122 114 117 119 130 144 148 127 139 149 144 140 144 154
70 71 71 69 72 79 76 62 62 59 53 38 38 57 95 97 91 120 121 116 136 139 130 119 83 123 165 149 122 112 112 109 110 114 102 95 105 143 139 136 132 141 147 154
88 81 78 76 84 82 72 64 70 66 55 58 49 47 64 97 83 47 97 102 107 147 124 118 127 129 223 111 97 82 82 116 125 123 98 118 136 168 149 147 150 151 142 147
94 85 81 72 69 63 54 40 57 51 50 52 55 64 64 35 7 99 117 109 125 188 148 135 123 153 160 126 105 85 112 108 121 119 123 118 134 130 135 143 148 148 147 144
121 91 79 64 64 69 65 39 48 41 51 97 78 56 50 70 80 92 109 115 129 134 154 166 186 183 215 259 276 265 163 129 158 151 136 143 136 134 137 141 143 150 146 147
112 117 97 100 114 54 339 15 342 73 63 55 83 84 88 98 98 122 111 124 107 106 120 156 153 151 159 144 153 152 150 141 125 143 142 141 144 144 147 150 149 149 154 151